Location: Mascot Post Office (historical)
(40.2645°N, 99.5462°W)
Time: 17:27:21
(UTC+00:00)

Meteor 1-25 Rocket - Pass Details

Date: 14 July 2020
Orbit: 837 x 891 km, 81.2° (Epoch: 05 August)

Event Time Altitude Azimuth Distance (km) Brightness Sun altitude
Exits shadow 07:36:53 81° 230° (SW) 861 4.0 -26.9°
Maximum altitude 07:37:07 84° 280° (W) 856 4.1 -26.9°
Drops below altitude 10° 07:42:43 10° 8° (N) 2,465 7.6 -26.7°
Sets 07:45:07 0° 9° (N) 3,400 8.7 -26.5°
